Time,TemperatureF,DewpointF,PressureIn,WindDirection,WindDirectionDegrees,WindSpeedMPH,WindSpeedGustMPH,Humidity,HourlyPrecipIn,Conditions,Clouds,dailyrainin,SoftwareType,DateUTC
2013-01-30 00:04:00,30.0,28.0,30.10,East,101,0.0,0.0,94,0.00,,,0.14,,2013-01-30 05:04:00,
2013-01-30 00:12:00,30.0,28.0,30.09,East,101,327.0,327.0,94,-99.99,,,-99.99,,2013-01-30 05:12:00,
2013-01-30 00:22:00,30.0,28.0,30.09,East,101,327.0,327.0,94,-99.99,,,-99.99,,2013-01-30 05:22:00,
2013-01-30 00:32:00,30.0,28.0,30.09,East,101,0.0,0.0,94,0.00,,,0.14,,2013-01-30 05:32:00,
2013-01-30 00:43:00,30.0,28.0,30.09,East,101,0.0,0.0,94,0.00,,,0.14,,2013-01-30 05:43:00,
2013-01-30 00:52:00,30.0,28.0,30.09,East,101,0.0,0.0,94,0.00,,,0.14,,2013-01-30 05:52:00,
2013-01-30 01:02:00,30.0,29.0,30.08,East,101,0.0,0.0,95,0.00,,,0.14,,2013-01-30 06:02:00,
2013-01-30 01:11:00,30.0,29.0,30.08,East,101,0.0,0.0,95,0.00,,,0.14,,2013-01-30 06:11:00,
2013-01-30 01:21:00,31.0,30.0,30.07,East,101,327.0,327.0,95,-99.99,,,-99.99,,2013-01-30 06:21:00,
2013-01-30 01:32:00,31.0,30.0,30.06,East,101,0.0,0.0,95,0.00,,,0.14,,2013-01-30 06:32:00,
2013-01-30 01:42:00,31.0,30.0,30.06,East,101,0.0,0.0,95,0.00,,,0.14,,2013-01-30 06:42:00,
2013-01-30 01:52:00,31.0,30.0,30.06,East,101,327.0,327.0,95,-99.99,,,-99.99,,2013-01-30 06:52:00,
2013-01-30 02:02:00,31.0,30.0,30.05,East,101,0.0,0.0,95,0.00,,,0.14,,2013-01-30 07:02:00,
2013-01-30 02:11:00,31.0,30.0,30.05,East,101,0.0,0.0,95,0.00,,,0.14,,2013-01-30 07:11:00,
2013-01-30 02:21:00,31.0,30.0,30.05,East,101,0.0,0.0,95,0.00,,,0.14,,2013-01-30 07:21:00,
2013-01-30 02:32:00,31.0,30.0,30.04,East,101,0.0,0.0,95,0.00,,,0.14,,2013-01-30 07:32:00,
2013-01-30 02:42:00,31.0,30.0,30.04,East,101,0.0,0.0,95,0.00,,,0.14,,2013-01-30 07:42:00,
2013-01-30 02:52:00,31.0,30.0,30.04,East,101,0.0,0.0,95,0.00,,,0.14,,2013-01-30 07:52:00,
2013-01-30 03:01:00,32.0,31.0,30.03,East,101,327.0,327.0,95,-99.99,,,-99.99,,2013-01-30 08:01:00,
2013-01-30 03:11:00,32.0,31.0,30.03,East,101,327.0,327.0,95,-99.99,,,-99.99,,2013-01-30 08:11:00,
2013-01-30 03:21:00,32.0,31.0,30.03,East,101,0.0,0.0,95,0.00,,,0.14,,2013-01-30 08:21:00,
2013-01-30 03:32:00,32.0,31.0,30.01,East,101,0.0,0.0,95,0.00,,,0.14,,2013-01-30 08:32:00,
2013-01-30 03:42:00,32.0,31.0,30.01,East,101,0.0,0.0,95,0.00,,,0.14,,2013-01-30 08:42:00,
2013-01-30 03:52:00,32.0,31.0,30.00,East,101,0.0,0.0,95,0.00,,,0.14,,2013-01-30 08:52:00,
2013-01-30 04:02:00,32.0,31.0,30.00,East,101,0.0,0.0,95,0.00,,,0.14,,2013-01-30 09:02:00,
2013-01-30 04:11:00,32.0,31.0,30.00,East,101,0.0,0.0,95,0.00,,,0.14,,2013-01-30 09:11:00,
2013-01-30 04:21:00,32.0,31.0,29.99,East,101,0.0,0.0,95,0.00,,,0.14,,2013-01-30 09:21:00,
2013-01-30 04:32:00,32.0,31.0,29.98,East,101,327.0,327.0,95,-99.99,,,-99.99,,2013-01-30 09:32:00,
2013-01-30 04:42:00,32.0,31.0,29.98,East,101,327.0,327.0,95,-99.99,,,-99.99,,2013-01-30 09:42:00,
2013-01-30 04:52:00,32.0,31.0,29.98,East,101,0.0,0.0,95,0.00,,,0.14,,2013-01-30 09:52:00,
2013-01-30 05:02:00,32.0,31.0,29.97,East,96,0.0,1.0,95,0.00,,,0.14,,2013-01-30 10:02:00,
2013-01-30 05:11:00,32.0,31.0,29.97,East,96,0.0,1.0,95,0.00,,,0.14,,2013-01-30 10:11:00,
2013-01-30 05:21:00,32.0,31.0,29.96,East,96,0.0,0.0,96,0.00,,,0.14,,2013-01-30 10:21:00,
2013-01-30 05:32:00,32.0,31.0,29.96,East,96,0.0,0.0,96,0.00,,,0.14,,2013-01-30 10:32:00,
2013-01-30 05:42:00,32.0,31.0,29.96,East,96,0.0,0.0,96,0.00,,,0.14,,2013-01-30 10:42:00,
2013-01-30 05:52:00,32.0,31.0,29.96,East,96,0.0,0.0,96,0.00,,,0.14,,2013-01-30 10:52:00,
2013-01-30 06:02:00,32.0,31.0,29.95,East,96,0.0,0.0,96,0.00,,,0.14,,2013-01-30 11:02:00,
2013-01-30 06:11:00,32.0,31.0,29.95,East,96,0.0,0.0,96,0.00,,,0.14,,2013-01-30 11:11:00,
2013-01-30 06:22:00,32.0,31.0,29.94,East,96,0.0,0.0,96,0.00,,,0.14,,2013-01-30 11:22:00,
2013-01-30 06:33:00,32.0,31.0,29.94,East,96,0.0,0.0,96,0.00,,,0.14,,2013-01-30 11:33:00,
2013-01-30 06:42:00,32.0,31.0,29.94,East,96,0.0,0.0,96,0.00,,,0.14,,2013-01-30 11:42:00,
2013-01-30 06:52:00,32.0,31.0,29.93,East,96,0.0,0.0,96,0.00,,,0.14,,2013-01-30 11:52:00,
2013-01-30 07:02:00,32.0,31.0,29.92,SE,130,0.0,1.0,96,0.00,,,0.14,,2013-01-30 12:02:00,
2013-01-30 07:12:00,32.0,31.0,29.92,SE,130,0.0,1.0,96,0.00,,,0.14,,2013-01-30 12:12:00,
2013-01-30 07:22:00,32.0,31.0,29.92,SE,130,0.0,0.0,96,0.00,,,0.14,,2013-01-30 12:22:00,
2013-01-30 07:33:00,32.0,31.0,29.91,SE,130,0.0,0.0,96,0.00,,,0.14,,2013-01-30 12:33:00,
2013-01-30 07:43:00,32.0,31.0,29.91,SE,130,0.0,0.0,96,0.00,,,0.14,,2013-01-30 12:43:00,
2013-01-30 08:03:00,32.0,31.0,29.90,SE,130,0.0,0.0,96,0.00,,,0.14,,2013-01-30 13:03:00,
2013-01-30 08:12:00,32.0,31.0,29.90,SE,130,0.0,0.0,96,0.00,,,0.14,,2013-01-30 13:12:00,
2013-01-30 08:23:00,32.0,31.0,29.89,SE,130,0.0,0.0,96,0.00,,,0.14,,2013-01-30 13:23:00,
2013-01-30 08:33:00,32.0,31.0,29.89,SE,130,0.0,0.0,96,0.00,,,0.14,,2013-01-30 13:33:00,
2013-01-30 08:43:00,32.0,31.0,29.89,SE,130,0.0,0.0,96,0.00,,,0.14,,2013-01-30 13:43:00,
2013-01-30 08:53:00,32.0,31.0,29.88,SE,130,327.0,327.0,96,-99.99,,,-99.99,,2013-01-30 13:53:00,
2013-01-30 09:03:00,32.0,31.0,29.87,SE,130,0.0,0.0,96,0.00,,,0.14,,2013-01-30 14:03:00,
2013-01-30 09:12:00,32.0,31.0,29.87,SE,130,0.0,0.0,96,0.00,,,0.14,,2013-01-30 14:12:00,
2013-01-30 09:23:00,32.0,31.0,29.87,SE,130,0.0,0.0,96,0.00,,,0.14,,2013-01-30 14:23:00,
2013-01-30 09:33:00,32.0,31.0,29.85,SE,130,0.0,0.0,96,0.00,,,0.14,,2013-01-30 14:33:00,
2013-01-30 09:42:00,32.0,31.0,29.85,SE,130,0.0,0.0,96,0.00,,,0.14,,2013-01-30 14:42:00,
2013-01-30 09:53:00,32.0,31.0,29.83,SE,130,0.0,0.0,96,0.00,,,0.14,,2013-01-30 14:53:00,
2013-01-30 10:03:00,32.0,31.0,29.82,SE,130,327.0,327.0,96,-99.99,,,-99.99,,2013-01-30 15:03:00,
2013-01-30 10:12:00,32.0,31.0,29.82,SE,130,327.0,327.0,96,-99.99,,,-99.99,,2013-01-30 15:12:00,
2013-01-30 10:23:00,32.0,31.0,29.82,SE,130,0.0,0.0,96,0.01,,,0.15,,2013-01-30 15:23:00,
2013-01-30 10:33:00,32.0,31.0,29.80,SE,130,0.0,0.0,96,0.06,,,0.20,,2013-01-30 15:33:00,
2013-01-30 10:43:00,32.0,31.0,29.80,SE,130,0.0,0.0,96,0.06,,,0.20,,2013-01-30 15:43:00,
2013-01-30 10:53:00,32.0,31.0,29.79,SE,130,0.0,0.0,96,0.07,,,0.21,,2013-01-30 15:53:00,
2013-01-30 11:03:00,32.0,31.0,29.78,SE,130,0.0,0.0,96,0.06,,,0.21,,2013-01-30 16:03:00,
2013-01-30 11:12:00,32.0,31.0,29.78,SE,130,0.0,0.0,96,0.06,,,0.21,,2013-01-30 16:12:00,
2013-01-30 11:23:00,32.0,31.0,29.77,SE,130,0.0,0.0,96,0.06,,,0.22,,2013-01-30 16:23:00,
2013-01-30 11:32:00,32.0,31.0,29.75,SE,130,327.0,327.0,96,-99.99,,,-99.99,,2013-01-30 16:32:00,
2013-01-30 11:42:00,32.0,31.0,29.75,SE,130,327.0,327.0,96,-99.99,,,-99.99,,2013-01-30 16:42:00,
2013-01-30 11:52:00,32.0,31.0,29.75,SE,130,327.0,327.0,96,-99.99,,,-99.99,,2013-01-30 16:52:00,
2013-01-30 12:02:00,33.0,32.0,29.73,SE,130,0.0,0.0,96,0.06,,,0.26,,2013-01-30 17:02:00,
2013-01-30 12:12:00,33.0,32.0,29.73,SE,130,0.0,0.0,96,0.06,,,0.26,,2013-01-30 17:12:00,
2013-01-30 12:23:00,33.0,32.0,29.71,SE,130,327.0,327.0,96,-99.99,,,-99.99,,2013-01-30 17:23:00,
2013-01-30 12:33:00,33.0,32.0,29.70,SE,130,0.0,0.0,96,0.10,,,0.32,,2013-01-30 17:33:00,
2013-01-30 12:43:00,33.0,32.0,29.70,SE,130,0.0,0.0,96,0.10,,,0.32,,2013-01-30 17:43:00,
2013-01-30 12:53:00,33.0,32.0,29.67,SE,130,327.0,327.0,96,-99.99,,,-99.99,,2013-01-30 17:53:00,
2013-01-30 13:03:00,34.0,33.0,29.67,SE,130,0.0,0.0,96,0.09,,,0.29,,2013-01-30 18:03:00,
2013-01-30 13:13:00,34.0,33.0,29.67,SE,130,0.0,0.0,96,0.09,,,0.29,,2013-01-30 18:13:00,
2013-01-30 13:23:00,33.0,32.0,29.66,SE,130,0.0,0.0,96,0.04,,,0.29,,2013-01-30 18:23:00,
2013-01-30 13:33:00,34.0,33.0,29.64,SE,130,0.0,0.0,96,0.02,,,0.29,,2013-01-30 18:33:00,
2013-01-30 13:42:00,34.0,33.0,29.64,SE,130,0.0,0.0,96,0.02,,,0.29,,2013-01-30 18:42:00,
2013-01-30 13:53:00,34.0,33.0,29.63,SE,130,0.0,0.0,96,0.02,,,0.26,,2013-01-30 18:53:00,
2013-01-30 14:03:00,35.0,34.0,29.62,SE,130,0.0,0.0,96,0.01,,,0.26,,2013-01-30 19:03:00,
2013-01-30 14:12:00,35.0,34.0,29.62,SE,130,0.0,0.0,96,0.01,,,0.26,,2013-01-30 19:12:00,
2013-01-30 14:22:00,35.0,34.0,29.61,SE,130,0.0,0.0,96,0.02,,,0.27,,2013-01-30 19:22:00,
2013-01-30 14:33:00,35.0,34.0,29.60,SE,130,0.0,1.0,96,0.02,,,0.27,,2013-01-30 19:33:00,
2013-01-30 14:43:00,35.0,34.0,29.60,SE,130,0.0,1.0,96,0.02,,,0.27,,2013-01-30 19:43:00,
2013-01-30 14:53:00,34.0,33.0,29.59,SE,130,0.0,0.0,96,0.01,,,0.24,,2013-01-30 19:53:00,
2013-01-30 15:03:00,34.0,33.0,29.59,SE,130,0.0,0.0,96,0.01,,,0.24,,2013-01-30 20:03:00,
2013-01-30 15:12:00,34.0,33.0,29.59,SE,130,0.0,0.0,96,0.01,,,0.24,,2013-01-30 20:12:00,
2013-01-30 15:22:00,34.0,33.0,29.57,SE,130,0.0,0.0,96,0.01,,,0.25,,2013-01-30 20:22:00,
2013-01-30 15:33:00,34.0,33.0,29.56,SE,130,0.0,0.0,96,0.01,,,0.25,,2013-01-30 20:33:00,
2013-01-30 15:42:00,34.0,33.0,29.56,SE,130,0.0,0.0,96,0.01,,,0.25,,2013-01-30 20:42:00,
2013-01-30 15:53:00,34.0,33.0,29.57,SE,130,0.0,0.0,96,0.01,,,0.25,,2013-01-30 20:53:00,
2013-01-30 16:03:00,34.0,33.0,29.57,SE,130,0.0,0.0,96,0.01,,,0.25,,2013-01-30 21:03:00,
2013-01-30 16:12:00,34.0,33.0,29.57,SE,130,0.0,0.0,96,0.01,,,0.25,,2013-01-30 21:12:00,
2013-01-30 16:23:00,34.0,33.0,29.55,SE,130,0.0,0.0,96,0.05,,,0.29,,2013-01-30 21:23:00,
2013-01-30 16:32:00,34.0,33.0,29.54,SE,130,0.0,0.0,96,0.06,,,0.30,,2013-01-30 21:32:00,
2013-01-30 16:43:00,34.0,33.0,29.54,SE,130,0.0,0.0,96,0.06,,,0.30,,2013-01-30 21:43:00,
2013-01-30 16:53:00,34.0,33.0,29.54,SE,130,0.0,0.0,96,0.08,,,0.32,,2013-01-30 21:53:00,
2013-01-30 17:03:00,34.0,33.0,29.54,SE,130,0.0,0.0,96,0.07,,,0.32,,2013-01-30 22:03:00,
2013-01-30 17:12:00,34.0,33.0,29.54,SE,130,0.0,0.0,96,0.07,,,0.32,,2013-01-30 22:12:00,
2013-01-30 17:22:00,34.0,33.0,29.54,SE,130,0.0,0.0,96,0.04,,,0.32,,2013-01-30 22:22:00,
2013-01-30 17:32:00,34.0,33.0,29.53,SE,130,0.0,0.0,96,0.02,,,0.32,,2013-01-30 22:32:00,
2013-01-30 17:42:00,34.0,33.0,29.53,SE,130,0.0,0.0,96,0.02,,,0.32,,2013-01-30 22:42:00,
2013-01-30 17:53:00,36.0,35.0,29.52,West,263,0.0,2.0,96,0.02,,,0.34,,2013-01-30 22:53:00,
2013-01-30 18:02:00,35.0,34.0,29.52,West,263,0.0,1.0,97,0.02,,,0.34,,2013-01-30 23:02:00,
2013-01-30 18:12:00,35.0,34.0,29.52,West,263,0.0,1.0,97,0.02,,,0.34,,2013-01-30 23:12:00,
2013-01-30 18:22:00,35.0,34.0,29.52,West,263,0.0,0.0,97,0.02,,,0.34,,2013-01-30 23:22:00,
2013-01-30 18:32:00,36.0,35.0,29.51,West,263,0.0,1.0,97,0.02,,,0.34,,2013-01-30 23:32:00,
2013-01-30 18:42:00,36.0,35.0,29.51,West,263,0.0,1.0,97,0.02,,,0.34,,2013-01-30 23:42:00,
2013-01-30 18:52:00,36.0,35.0,29.51,West,263,0.0,1.0,97,0.01,,,0.34,,2013-01-30 23:52:00,
2013-01-30 19:02:00,39.0,38.0,29.50,West,263,327.0,327.0,97,-99.99,,,-99.99,,2013-01-31 00:02:00,
2013-01-30 19:11:00,39.0,38.0,29.50,West,263,327.0,327.0,97,-99.99,,,-99.99,,2013-01-31 00:11:00,
2013-01-30 19:22:00,39.0,38.0,29.50,West,260,0.0,2.0,97,0.01,,,0.35,,2013-01-31 00:22:00,
2013-01-30 19:32:00,38.0,37.0,29.50,West,260,0.0,1.0,97,0.01,,,0.35,,2013-01-31 00:32:00,
2013-01-30 19:42:00,38.0,37.0,29.50,West,260,0.0,1.0,97,0.01,,,0.35,,2013-01-31 00:42:00,
2013-01-30 19:53:00,38.0,37.0,29.49,West,260,327.0,327.0,97,-99.99,,,-99.99,,2013-01-31 00:53:00,
2013-01-30 20:02:00,38.0,37.0,29.49,West,260,0.0,0.0,97,0.02,,,0.36,,2013-01-31 01:02:00,
2013-01-30 20:12:00,38.0,37.0,29.49,West,260,0.0,0.0,97,0.02,,,0.36,,2013-01-31 01:12:00,
2013-01-30 20:22:00,38.0,37.0,29.48,West,260,0.0,2.0,97,0.03,,,0.37,,2013-01-31 01:22:00,
2013-01-30 20:32:00,40.0,39.0,29.47,West,260,0.0,1.0,97,0.03,,,0.38,,2013-01-31 01:32:00,
2013-01-30 20:42:00,40.0,39.0,29.47,West,260,0.0,1.0,97,0.03,,,0.38,,2013-01-31 01:42:00,
2013-01-30 20:52:00,40.0,39.0,29.46,West,260,0.0,1.0,97,0.02,,,0.38,,2013-01-31 01:52:00,
2013-01-30 21:01:00,41.0,40.0,29.46,West,260,0.0,1.0,97,0.02,,,0.38,,2013-01-31 02:01:00,
2013-01-30 21:12:00,41.0,40.0,29.46,West,260,0.0,1.0,97,0.02,,,0.38,,2013-01-31 02:12:00,
2013-01-30 21:22:00,42.0,41.0,29.45,West,260,0.0,2.0,97,0.00,,,0.38,,2013-01-31 02:22:00,
2013-01-30 21:32:00,42.0,41.0,29.44,West,260,0.0,1.0,97,0.00,,,0.38,,2013-01-31 02:32:00,
2013-01-30 21:42:00,42.0,41.0,29.44,West,260,0.0,1.0,97,0.00,,,0.38,,2013-01-31 02:42:00,
2013-01-30 21:52:00,42.0,41.0,29.44,West,260,0.0,1.0,97,0.00,,,0.38,,2013-01-31 02:52:00,
2013-01-30 22:03:00,44.0,43.0,29.43,SE,136,327.0,327.0,97,-99.99,,,-99.99,,2013-01-31 03:03:00,
2013-01-30 22:11:00,44.0,43.0,29.43,SE,136,327.0,327.0,97,-99.99,,,-99.99,,2013-01-31 03:11:00,
2013-01-30 22:21:00,46.0,45.0,29.43,NW,318,0.0,2.0,97,0.01,,,0.39,,2013-01-31 03:21:00,
2013-01-30 22:32:00,41.0,40.0,29.44,SW,229,0.0,2.0,97,0.01,,,0.39,,2013-01-31 03:32:00,
2013-01-30 22:42:00,41.0,40.0,29.44,SW,229,0.0,2.0,97,0.01,,,0.39,,2013-01-31 03:42:00,
2013-01-30 22:52:00,42.0,41.0,29.43,SW,228,0.0,1.0,97,0.00,,,0.39,,2013-01-31 03:52:00,
2013-01-30 23:02:00,42.0,41.0,29.41,SW,228,327.0,327.0,97,-99.99,,,-99.99,,2013-01-31 04:02:00,
2013-01-30 23:11:00,42.0,41.0,29.41,SW,228,327.0,327.0,97,-99.99,,,-99.99,,2013-01-31 04:11:00,
2013-01-30 23:22:00,42.0,41.0,29.42,SW,228,0.0,0.0,97,0.00,,,0.39,,2013-01-31 04:22:00,
2013-01-30 23:32:00,41.0,40.0,29.40,SW,228,0.0,1.0,97,0.00,,,0.39,,2013-01-31 04:32:00,
2013-01-30 23:41:00,41.0,40.0,29.40,SW,228,0.0,1.0,97,0.00,,,0.39,,2013-01-31 04:41:00,
2013-01-30 23:51:00,41.0,40.0,29.39,SW,228,0.0,1.0,97,0.00,,,0.39,,2013-01-31 04:51:00,